Year,Month,Day,Hour,Minute,Value (Times are PST for temperature in C)
2019,07,09,00,00,13.80
2019,07,09,00,01,13.80
2019,07,09,00,02,13.80
2019,07,09,00,03,13.80
2019,07,09,00,04,13.80
2019,07,09,00,05,13.80
2019,07,09,00,06,13.80
2019,07,09,00,07,13.90
2019,07,09,00,08,13.90
2019,07,09,00,09,13.90
2019,07,09,00,10,13.90
2019,07,09,00,11,13.90
2019,07,09,00,12,13.90
2019,07,09,00,13,13.90
2019,07,09,00,14,13.90
2019,07,09,00,15,13.90
2019,07,09,00,16,13.90
2019,07,09,00,17,14.00
2019,07,09,00,18,14.00
2019,07,09,00,19,14.00
2019,07,09,00,20,14.00
2019,07,09,00,21,14.00
2019,07,09,00,22,14.00
2019,07,09,00,23,14.00
2019,07,09,00,24,14.00
2019,07,09,00,25,14.00
2019,07,09,00,26,14.00
2019,07,09,00,27,14.00
2019,07,09,00,28,14.10
2019,07,09,00,29,14.10
2019,07,09,00,30,14.10
2019,07,09,00,31,14.10
2019,07,09,00,32,14.10
2019,07,09,00,33,14.10
2019,07,09,00,34,14.10
2019,07,09,00,35,14.10
2019,07,09,00,36,14.10
2019,07,09,00,37,14.10
2019,07,09,00,38,14.10
2019,07,09,00,39,14.10
2019,07,09,00,40,14.10
2019,07,09,00,41,14.10
2019,07,09,00,42,14.10
2019,07,09,00,43,14.10
2019,07,09,00,44,14.10
2019,07,09,00,45,14.10
2019,07,09,00,46,14.10
2019,07,09,00,47,14.20
2019,07,09,00,48,14.20
2019,07,09,00,49,14.20
2019,07,09,00,50,14.20
2019,07,09,00,51,14.20
2019,07,09,00,52,14.10
2019,07,09,00,53,14.10
2019,07,09,00,54,14.10
2019,07,09,00,55,14.10
2019,07,09,00,56,14.10
2019,07,09,00,57,14.10
2019,07,09,00,58,14.10
2019,07,09,00,59,14.10
2019,07,09,01,00,14.10
2019,07,09,01,01,14.10
2019,07,09,01,02,14.10
2019,07,09,01,03,14.10
2019,07,09,01,04,14.10
2019,07,09,01,05,14.10
2019,07,09,01,06,14.10
2019,07,09,01,07,14.10
2019,07,09,01,08,14.10
2019,07,09,01,09,14.00
2019,07,09,01,10,14.00
2019,07,09,01,11,14.00
2019,07,09,01,12,14.00
2019,07,09,01,13,14.00
2019,07,09,01,14,14.00
2019,07,09,01,15,14.00
2019,07,09,01,16,13.90
2019,07,09,01,17,13.90
2019,07,09,01,18,13.90
2019,07,09,01,19,13.90
2019,07,09,01,20,13.90
2019,07,09,01,21,13.90
2019,07,09,01,22,13.90
2019,07,09,01,23,13.90
2019,07,09,01,24,13.90
2019,07,09,01,25,13.80
2019,07,09,01,26,13.80
2019,07,09,01,27,13.80
2019,07,09,01,28,13.80
2019,07,09,01,29,13.80
2019,07,09,01,30,13.80
2019,07,09,01,31,13.80
2019,07,09,01,32,13.70
2019,07,09,01,33,13.70
2019,07,09,01,34,13.70
2019,07,09,01,35,13.70
2019,07,09,01,36,13.70
2019,07,09,01,37,13.60
2019,07,09,01,38,13.60
2019,07,09,01,39,13.60
2019,07,09,01,40,13.60
2019,07,09,01,41,13.50
2019,07,09,01,42,13.50
2019,07,09,01,43,13.50
2019,07,09,01,44,13.50
2019,07,09,01,45,13.40
2019,07,09,01,46,13.40
2019,07,09,01,47,13.40
2019,07,09,01,48,13.40
2019,07,09,01,49,13.40
2019,07,09,01,50,13.30
2019,07,09,01,51,13.30
2019,07,09,01,52,13.30
2019,07,09,01,53,13.30
2019,07,09,01,54,13.30
2019,07,09,01,55,13.30
2019,07,09,01,56,13.20
2019,07,09,01,57,13.20
2019,07,09,01,58,13.20
2019,07,09,01,59,13.20
2019,07,09,02,00,13.20
2019,07,09,02,01,13.20
2019,07,09,02,02,13.20
2019,07,09,02,03,13.10
2019,07,09,02,04,13.10
2019,07,09,02,05,13.10
2019,07,09,02,06,13.10
2019,07,09,02,07,13.10
2019,07,09,02,08,13.10
2019,07,09,02,09,13.00
2019,07,09,02,10,13.00
2019,07,09,02,11,13.00
2019,07,09,02,12,13.00
2019,07,09,02,13,13.00
2019,07,09,02,14,13.00
2019,07,09,02,15,13.00
2019,07,09,02,16,12.90
2019,07,09,02,17,12.90
2019,07,09,02,18,12.90
2019,07,09,02,19,12.90
2019,07,09,02,20,12.90
2019,07,09,02,21,12.90
2019,07,09,02,22,12.90
2019,07,09,02,23,12.90
2019,07,09,02,24,12.90
2019,07,09,02,25,12.90
2019,07,09,02,26,12.90
2019,07,09,02,27,12.90
2019,07,09,02,28,12.90
2019,07,09,02,29,12.90
2019,07,09,02,30,12.80
2019,07,09,02,31,12.80
2019,07,09,02,32,12.80
2019,07,09,02,33,12.80
2019,07,09,02,34,12.80
2019,07,09,02,35,12.80
2019,07,09,02,36,12.80
2019,07,09,02,37,12.80
2019,07,09,02,38,12.80
2019,07,09,02,39,12.80
2019,07,09,02,40,12.80
2019,07,09,02,41,12.80
2019,07,09,02,42,12.80
2019,07,09,02,43,12.80
2019,07,09,02,44,12.80
2019,07,09,02,45,12.80
2019,07,09,02,46,12.80
2019,07,09,02,47,12.80
2019,07,09,02,48,12.80
2019,07,09,02,49,12.80
2019,07,09,02,50,12.70
2019,07,09,02,51,12.80
2019,07,09,02,52,12.80
2019,07,09,02,53,12.80
2019,07,09,02,54,12.80
2019,07,09,02,55,12.80
2019,07,09,02,56,12.80
2019,07,09,02,57,12.80
2019,07,09,02,58,12.80
2019,07,09,02,59,12.70
2019,07,09,03,00,12.70
2019,07,09,03,01,12.80
2019,07,09,03,02,12.80
2019,07,09,03,03,12.80
2019,07,09,03,04,12.80
2019,07,09,03,05,12.80
2019,07,09,03,06,12.80
2019,07,09,03,07,12.80
2019,07,09,03,08,12.80
2019,07,09,03,09,12.80
2019,07,09,03,10,12.80
2019,07,09,03,11,12.80
2019,07,09,03,12,12.80
2019,07,09,03,13,12.80
2019,07,09,03,14,12.80
2019,07,09,03,15,12.80
2019,07,09,03,16,12.80
2019,07,09,03,17,12.80
2019,07,09,03,18,12.80
2019,07,09,03,19,12.80
2019,07,09,03,20,12.70
2019,07,09,03,21,12.70
2019,07,09,03,22,12.70
2019,07,09,03,23,12.70
2019,07,09,03,24,12.70
2019,07,09,03,25,12.70
2019,07,09,03,26,12.60
2019,07,09,03,27,12.60
2019,07,09,03,28,12.60
2019,07,09,03,29,12.60
2019,07,09,03,30,12.60
2019,07,09,03,31,12.60
2019,07,09,03,32,12.60
2019,07,09,03,33,12.60
2019,07,09,03,34,12.60
2019,07,09,03,35,12.60
2019,07,09,03,36,12.60
2019,07,09,03,37,12.60
2019,07,09,03,38,12.60
2019,07,09,03,39,12.60
2019,07,09,03,40,12.60
2019,07,09,03,41,12.60
2019,07,09,03,42,12.60
2019,07,09,03,43,12.60
2019,07,09,03,44,12.60
2019,07,09,03,45,12.60
2019,07,09,03,46,12.60
2019,07,09,03,47,12.70
2019,07,09,03,48,12.70
2019,07,09,03,49,12.70
2019,07,09,03,50,12.70
2019,07,09,03,51,12.70
2019,07,09,03,52,12.70
2019,07,09,03,53,12.70
2019,07,09,03,54,12.70
2019,07,09,03,55,12.70
2019,07,09,03,56,12.70
2019,07,09,03,57,12.70
2019,07,09,03,58,12.70
2019,07,09,03,59,12.70
2019,07,09,04,00,12.70
2019,07,09,04,01,12.70
2019,07,09,04,02,12.70
2019,07,09,04,03,12.70
2019,07,09,04,04,12.70
2019,07,09,04,05,12.70
2019,07,09,04,06,12.70
2019,07,09,04,07,12.70
2019,07,09,04,08,12.70
2019,07,09,04,09,12.70
2019,07,09,04,10,12.70
2019,07,09,04,11,12.70
2019,07,09,04,12,12.70
2019,07,09,04,13,12.70
2019,07,09,04,14,12.70
2019,07,09,04,15,12.70
2019,07,09,04,16,12.70
2019,07,09,04,17,12.70
2019,07,09,04,18,12.70
2019,07,09,04,19,12.70
2019,07,09,04,20,12.70
2019,07,09,04,21,12.70
2019,07,09,04,22,12.70
2019,07,09,04,23,12.70
2019,07,09,04,24,12.70
2019,07,09,04,25,12.70
2019,07,09,04,26,12.70
2019,07,09,04,27,12.70
2019,07,09,04,28,12.70
2019,07,09,04,29,12.70
2019,07,09,04,30,12.70
2019,07,09,04,31,12.70
2019,07,09,04,32,12.70
2019,07,09,04,33,12.70
2019,07,09,04,34,12.70
2019,07,09,04,35,12.70
2019,07,09,04,36,12.70
2019,07,09,04,37,12.70
2019,07,09,04,38,12.70
2019,07,09,04,39,12.70
2019,07,09,04,40,12.70
2019,07,09,04,41,12.70
2019,07,09,04,42,12.70
2019,07,09,04,43,12.70
2019,07,09,04,44,12.70
2019,07,09,04,45,12.70
2019,07,09,04,46,12.70
2019,07,09,04,47,12.70
2019,07,09,04,48,12.70
2019,07,09,04,49,12.70
2019,07,09,04,50,12.70
2019,07,09,04,51,12.70
2019,07,09,04,52,12.70
2019,07,09,04,53,12.70
2019,07,09,04,54,12.70
2019,07,09,04,55,12.70
2019,07,09,04,56,12.70
2019,07,09,04,57,12.70
2019,07,09,04,58,12.70
2019,07,09,04,59,12.70
2019,07,09,05,00,12.70
2019,07,09,05,01,12.70
2019,07,09,05,02,12.60
2019,07,09,05,03,12.60
2019,07,09,05,04,12.60
2019,07,09,05,05,12.60
2019,07,09,05,06,12.60
2019,07,09,05,07,12.60
2019,07,09,05,08,12.60
2019,07,09,05,09,12.60
2019,07,09,05,10,12.60
2019,07,09,05,11,12.60
2019,07,09,05,12,12.60
2019,07,09,05,13,12.60
2019,07,09,05,14,12.50
2019,07,09,05,15,12.50
2019,07,09,05,16,12.50
2019,07,09,05,17,12.50
2019,07,09,05,18,12.50
2019,07,09,05,19,12.50
2019,07,09,05,20,12.50
2019,07,09,05,21,12.50
2019,07,09,05,22,12.50
2019,07,09,05,23,12.50
2019,07,09,05,24,12.50
2019,07,09,05,25,12.50
2019,07,09,05,26,12.50
2019,07,09,05,27,12.50
2019,07,09,05,28,12.50
2019,07,09,05,29,12.50
2019,07,09,05,30,12.50
2019,07,09,05,31,12.50
2019,07,09,05,32,12.40
2019,07,09,05,33,12.40
2019,07,09,05,34,12.40
2019,07,09,05,35,12.40
2019,07,09,05,36,12.40
2019,07,09,05,37,12.40
2019,07,09,05,38,12.40
2019,07,09,05,39,12.40
2019,07,09,05,40,12.40
2019,07,09,05,41,12.40
2019,07,09,05,42,12.40
2019,07,09,05,43,12.40
2019,07,09,05,44,12.40
2019,07,09,05,45,12.30
2019,07,09,05,46,12.30
2019,07,09,05,47,12.30
2019,07,09,05,48,12.30
2019,07,09,05,49,12.30
2019,07,09,05,50,12.30
2019,07,09,05,51,12.30
2019,07,09,05,52,12.30
2019,07,09,05,53,12.30
2019,07,09,05,54,12.30
2019,07,09,05,55,12.30
2019,07,09,05,56,12.30
2019,07,09,05,57,12.30
2019,07,09,05,58,12.30
2019,07,09,05,59,12.30
2019,07,09,06,00,12.30
2019,07,09,06,01,12.30
2019,07,09,06,02,12.30
2019,07,09,06,03,12.40
2019,07,09,06,04,12.40
2019,07,09,06,05,12.40
2019,07,09,06,06,12.40
2019,07,09,06,07,12.40
2019,07,09,06,08,12.40
2019,07,09,06,09,12.40
2019,07,09,06,10,12.40
2019,07,09,06,11,12.40
2019,07,09,06,12,12.40
2019,07,09,06,13,12.40
2019,07,09,06,14,12.40
2019,07,09,06,15,12.40
2019,07,09,06,16,12.40
2019,07,09,06,17,12.40
2019,07,09,06,18,12.40
2019,07,09,06,19,12.40
2019,07,09,06,20,12.40
2019,07,09,06,21,12.40
2019,07,09,06,22,12.40
2019,07,09,06,23,12.50
2019,07,09,06,24,12.50
2019,07,09,06,25,12.50
2019,07,09,06,26,12.50
2019,07,09,06,27,12.50
2019,07,09,06,28,12.50
2019,07,09,06,29,12.60
2019,07,09,06,30,12.60
2019,07,09,06,31,12.60
2019,07,09,06,32,12.60
2019,07,09,06,33,12.60
2019,07,09,06,34,12.60
2019,07,09,06,35,12.70
2019,07,09,06,36,12.70
2019,07,09,06,37,12.70
2019,07,09,06,38,12.70
2019,07,09,06,39,12.70
2019,07,09,06,40,12.70
2019,07,09,06,41,12.70
2019,07,09,06,42,12.70
2019,07,09,06,43,12.70
2019,07,09,06,44,12.80
2019,07,09,06,45,12.80
2019,07,09,06,46,12.80
2019,07,09,06,47,12.80
2019,07,09,06,48,12.80
2019,07,09,06,49,12.90
2019,07,09,06,50,12.90
2019,07,09,06,51,12.90
2019,07,09,06,52,12.90
2019,07,09,06,53,13.00
2019,07,09,06,54,13.00
2019,07,09,06,55,13.00
2019,07,09,06,56,13.00
2019,07,09,06,57,13.10
2019,07,09,06,58,13.10
2019,07,09,06,59,13.10
2019,07,09,07,00,13.10
2019,07,09,07,01,13.10
2019,07,09,07,02,13.10
2019,07,09,07,03,13.10
2019,07,09,07,04,13.20
2019,07,09,07,05,13.20
2019,07,09,07,06,13.20
2019,07,09,07,07,13.20
2019,07,09,07,08,13.20
2019,07,09,07,09,13.30
2019,07,09,07,10,13.30
2019,07,09,07,11,13.30
2019,07,09,07,12,13.30
2019,07,09,07,13,13.30
2019,07,09,07,14,13.30
2019,07,09,07,15,13.40
2019,07,09,07,16,13.40
2019,07,09,07,17,13.40
2019,07,09,07,18,13.40
2019,07,09,07,19,13.40
2019,07,09,07,20,13.40
2019,07,09,07,21,13.40
2019,07,09,07,22,13.40
2019,07,09,07,23,13.40
2019,07,09,07,24,13.40
2019,07,09,07,25,13.40
2019,07,09,07,26,13.40
2019,07,09,07,27,13.40
2019,07,09,07,28,13.40
2019,07,09,07,29,13.50
2019,07,09,07,30,13.50
2019,07,09,07,31,13.50
2019,07,09,07,32,13.60
2019,07,09,07,33,13.60
2019,07,09,07,34,13.60
2019,07,09,07,35,13.60
2019,07,09,07,36,13.60
2019,07,09,07,37,13.60
2019,07,09,07,38,13.60
2019,07,09,07,39,13.70
2019,07,09,07,40,13.70
2019,07,09,07,41,13.70
2019,07,09,07,42,13.70
2019,07,09,07,43,13.80
2019,07,09,07,44,13.80
2019,07,09,07,45,13.80
2019,07,09,07,46,13.80
2019,07,09,07,47,13.80
2019,07,09,07,48,13.80
2019,07,09,07,49,13.80
2019,07,09,07,50,13.80
2019,07,09,07,51,13.80
2019,07,09,07,52,13.90
2019,07,09,07,53,13.90
2019,07,09,07,54,13.90
2019,07,09,07,55,13.90
2019,07,09,07,56,13.90
2019,07,09,07,57,13.90
2019,07,09,07,58,13.90
2019,07,09,07,59,13.90
2019,07,09,08,00,13.90
2019,07,09,08,01,13.90
2019,07,09,08,02,13.90
2019,07,09,08,03,14.00
2019,07,09,08,04,14.00
2019,07,09,08,05,14.00
2019,07,09,08,06,14.00
2019,07,09,08,07,14.00
2019,07,09,08,08,14.00
2019,07,09,08,09,14.00
2019,07,09,08,10,14.10
2019,07,09,08,11,14.10
2019,07,09,08,12,14.10
2019,07,09,08,13,14.10
2019,07,09,08,14,14.10
2019,07,09,08,15,14.10
2019,07,09,08,16,14.10
2019,07,09,08,17,14.20
2019,07,09,08,18,14.20
2019,07,09,08,19,14.20
2019,07,09,08,20,14.20
2019,07,09,08,21,14.20
2019,07,09,08,22,14.20
2019,07,09,08,23,14.20
2019,07,09,08,24,14.30
2019,07,09,08,25,14.30
2019,07,09,08,26,14.30
2019,07,09,08,27,14.30
2019,07,09,08,28,14.30
2019,07,09,08,29,14.30
2019,07,09,08,30,14.30
2019,07,09,08,31,14.30
2019,07,09,08,32,14.30
2019,07,09,08,33,14.40
2019,07,09,08,34,14.40
2019,07,09,08,35,14.40
2019,07,09,08,36,14.40
2019,07,09,08,37,14.40
2019,07,09,08,38,14.50
2019,07,09,08,39,14.50
2019,07,09,08,40,14.50
2019,07,09,08,41,14.50
2019,07,09,08,42,14.60
2019,07,09,08,43,14.60
2019,07,09,08,44,14.60
2019,07,09,08,45,14.60
2019,07,09,08,46,14.70
2019,07,09,08,47,14.70
2019,07,09,08,48,14.70
2019,07,09,08,49,14.70
2019,07,09,08,50,14.70
2019,07,09,08,51,14.70
2019,07,09,08,52,14.70
2019,07,09,08,53,14.80
2019,07,09,08,54,14.80
2019,07,09,08,55,14.80
2019,07,09,08,56,14.80
2019,07,09,08,57,14.90
2019,07,09,08,58,14.90
2019,07,09,08,59,14.90
2019,07,09,09,00,14.90
2019,07,09,09,01,14.90
2019,07,09,09,02,15.00
2019,07,09,09,03,15.10
2019,07,09,09,04,15.10
2019,07,09,09,05,15.10
2019,07,09,09,06,15.10
2019,07,09,09,07,15.20
2019,07,09,09,08,15.20
2019,07,09,09,09,15.20
2019,07,09,09,10,15.20
2019,07,09,09,11,15.20
2019,07,09,09,12,15.30
2019,07,09,09,13,15.30
2019,07,09,09,14,15.30
2019,07,09,09,15,15.30
2019,07,09,09,16,15.30
2019,07,09,09,17,15.40
2019,07,09,09,18,15.40
2019,07,09,09,19,15.40
2019,07,09,09,20,15.50
2019,07,09,09,21,15.50
2019,07,09,09,22,15.50
2019,07,09,09,23,15.60
2019,07,09,09,24,15.60
2019,07,09,09,25,15.60
2019,07,09,09,26,15.60
2019,07,09,09,27,15.70
2019,07,09,09,28,15.70
2019,07,09,09,29,15.80
2019,07,09,09,30,15.80
2019,07,09,09,31,15.90
2019,07,09,09,32,15.90
2019,07,09,09,33,16.00
2019,07,09,09,34,16.00
2019,07,09,09,35,16.10
2019,07,09,09,36,16.10
2019,07,09,09,37,16.20
2019,07,09,09,38,16.30
2019,07,09,09,39,16.30
2019,07,09,09,40,16.40
2019,07,09,09,41,16.50
2019,07,09,09,42,16.50
2019,07,09,09,43,16.60
2019,07,09,09,44,16.70
2019,07,09,09,45,16.80
2019,07,09,09,46,16.90
2019,07,09,09,47,17.00
2019,07,09,09,48,17.00
2019,07,09,09,49,17.10
2019,07,09,09,50,17.10
2019,07,09,09,51,17.20
2019,07,09,09,52,17.20
2019,07,09,09,53,17.30
2019,07,09,09,54,17.40
2019,07,09,09,55,17.40
2019,07,09,09,56,17.50
2019,07,09,09,57,17.50
2019,07,09,09,58,17.60
2019,07,09,09,59,17.60
2019,07,09,10,00,17.60
2019,07,09,10,01,17.60
2019,07,09,10,02,17.60
2019,07,09,10,03,17.70
2019,07,09,10,04,17.70
2019,07,09,10,05,17.70
2019,07,09,10,06,17.70
2019,07,09,10,07,17.70
2019,07,09,10,08,17.70
2019,07,09,10,09,17.80
2019,07,09,10,10,17.80
2019,07,09,10,11,17.90
2019,07,09,10,12,18.00
2019,07,09,10,13,18.00
2019,07,09,10,14,18.10
2019,07,09,10,15,18.20
2019,07,09,10,16,18.30
2019,07,09,10,17,18.30
2019,07,09,10,18,18.40
2019,07,09,10,19,18.40
2019,07,09,10,20,18.50
2019,07,09,10,21,18.60
2019,07,09,10,22,18.60
2019,07,09,10,23,18.60
2019,07,09,10,24,18.60
2019,07,09,10,25,18.60
2019,07,09,10,26,18.70
2019,07,09,10,27,18.70
2019,07,09,10,28,18.80
2019,07,09,10,29,18.80
2019,07,09,10,30,18.80
2019,07,09,10,31,18.90
2019,07,09,10,32,18.90
2019,07,09,10,33,19.00
2019,07,09,10,34,19.00
2019,07,09,10,35,19.10
2019,07,09,10,36,19.10
2019,07,09,10,37,19.20
2019,07,09,10,38,19.30
2019,07,09,10,39,19.40
2019,07,09,10,40,19.40
2019,07,09,10,41,19.50
2019,07,09,10,42,19.50
2019,07,09,10,43,19.60
2019,07,09,10,44,19.70
2019,07,09,10,45,19.70
2019,07,09,10,46,19.70
2019,07,09,10,47,19.70
2019,07,09,10,48,19.80
2019,07,09,10,49,19.80
2019,07,09,10,50,19.80
2019,07,09,10,51,19.80
2019,07,09,10,52,19.80
2019,07,09,10,53,19.80
2019,07,09,10,54,19.90
2019,07,09,10,55,19.90
2019,07,09,10,56,19.90
2019,07,09,10,57,19.90
2019,07,09,10,58,19.90
2019,07,09,10,59,19.90
2019,07,09,11,00,19.90
2019,07,09,11,01,19.90
2019,07,09,11,02,19.90
2019,07,09,11,03,19.90
2019,07,09,11,04,19.90
2019,07,09,11,05,19.90
2019,07,09,11,06,19.90
2019,07,09,11,07,19.90
2019,07,09,11,08,19.90
2019,07,09,11,09,19.90
2019,07,09,11,10,19.90
2019,07,09,11,11,19.90
2019,07,09,11,12,20.00
2019,07,09,11,13,20.10
2019,07,09,11,14,20.10
2019,07,09,11,15,20.20
2019,07,09,11,16,20.20
2019,07,09,11,17,20.20
2019,07,09,11,18,20.20
2019,07,09,11,19,20.20
2019,07,09,11,20,20.30
2019,07,09,11,21,20.30
2019,07,09,11,22,20.30
2019,07,09,11,23,20.30
2019,07,09,11,24,20.30
2019,07,09,11,25,20.20
2019,07,09,11,26,20.20
2019,07,09,11,27,20.20
2019,07,09,11,28,20.20
2019,07,09,11,29,20.30
2019,07,09,11,30,20.30
2019,07,09,11,31,20.40
2019,07,09,11,32,20.40
2019,07,09,11,33,20.40
2019,07,09,11,34,20.50
2019,07,09,11,35,20.60
2019,07,09,11,36,20.60
2019,07,09,11,37,20.70
2019,07,09,11,38,20.70
2019,07,09,11,39,20.70
2019,07,09,11,40,20.80
2019,07,09,11,41,20.90
2019,07,09,11,42,20.90
2019,07,09,11,43,20.90
2019,07,09,11,44,20.90
2019,07,09,11,45,20.90
2019,07,09,11,46,20.90
2019,07,09,11,47,20.90
2019,07,09,11,48,21.00
2019,07,09,11,49,21.10
2019,07,09,11,50,21.20
2019,07,09,11,51,21.30
2019,07,09,11,52,21.40
2019,07,09,11,53,21.50
2019,07,09,11,54,21.60
2019,07,09,11,55,21.60
2019,07,09,11,56,21.60
2019,07,09,11,57,21.60
2019,07,09,11,58,21.60
2019,07,09,11,59,21.50
2019,07,09,12,00,21.50
2019,07,09,12,01,21.50
2019,07,09,12,02,21.50
2019,07,09,12,03,21.60
2019,07,09,12,04,21.60
2019,07,09,12,05,21.60
2019,07,09,12,06,21.70
2019,07,09,12,07,21.80
2019,07,09,12,08,21.70
2019,07,09,12,09,21.70
2019,07,09,12,10,21.80
2019,07,09,12,11,21.90
2019,07,09,12,12,22.10
2019,07,09,12,13,22.20
2019,07,09,12,14,22.30
2019,07,09,12,15,22.30
2019,07,09,12,16,22.20
2019,07,09,12,17,22.20
2019,07,09,12,18,22.20
2019,07,09,12,19,22.20
2019,07,09,12,20,22.30
2019,07,09,12,21,22.40
2019,07,09,12,22,22.40
2019,07,09,12,23,22.50
2019,07,09,12,24,22.50
2019,07,09,12,25,22.50
2019,07,09,12,26,22.60
2019,07,09,12,27,22.50
2019,07,09,12,28,22.50
2019,07,09,12,29,22.50
2019,07,09,12,30,22.60
2019,07,09,12,31,22.60
2019,07,09,12,32,22.70
2019,07,09,12,33,22.70
2019,07,09,12,34,22.70
2019,07,09,12,35,22.70
2019,07,09,12,36,22.70
2019,07,09,12,37,22.60
2019,07,09,12,38,22.60
2019,07,09,12,39,22.70
2019,07,09,12,40,22.70
2019,07,09,12,41,22.80
2019,07,09,12,42,22.80
2019,07,09,12,43,22.80
2019,07,09,12,44,22.70
2019,07,09,12,45,22.60
2019,07,09,12,46,22.50
2019,07,09,12,47,22.50
2019,07,09,12,48,22.40
2019,07,09,12,49,22.40
2019,07,09,12,50,22.30
2019,07,09,12,51,22.30
2019,07,09,12,52,22.20
2019,07,09,12,53,22.20
2019,07,09,12,54,22.20
2019,07,09,12,55,22.20
2019,07,09,12,56,22.20
2019,07,09,12,57,22.20
2019,07,09,12,58,22.30
2019,07,09,12,59,22.40
2019,07,09,13,00,22.50
2019,07,09,13,01,22.50
2019,07,09,13,02,22.60
2019,07,09,13,03,22.70
2019,07,09,13,04,22.80
2019,07,09,13,05,22.80
2019,07,09,13,06,23.00
2019,07,09,13,07,23.10
2019,07,09,13,08,23.10
2019,07,09,13,09,23.10
2019,07,09,13,10,23.20
2019,07,09,13,11,23.20
2019,07,09,13,12,23.20
2019,07,09,13,13,23.20
2019,07,09,13,14,23.10
2019,07,09,13,15,23.00
2019,07,09,13,16,22.90
2019,07,09,13,17,22.80
2019,07,09,13,18,22.60
2019,07,09,13,19,22.40
2019,07,09,13,20,22.30
2019,07,09,13,21,22.20
2019,07,09,13,22,22.20
2019,07,09,13,23,22.10
2019,07,09,13,24,22.10
2019,07,09,13,25,22.10
2019,07,09,13,26,22.10
2019,07,09,13,27,22.20
2019,07,09,13,28,22.20
2019,07,09,13,29,22.30
2019,07,09,13,30,22.30
2019,07,09,13,31,22.30
2019,07,09,13,32,22.30
2019,07,09,13,33,22.40
2019,07,09,13,34,22.40
2019,07,09,13,35,22.40
2019,07,09,13,36,22.40
2019,07,09,13,37,22.40
2019,07,09,13,38,22.40
2019,07,09,13,39,22.40
2019,07,09,13,40,22.40
2019,07,09,13,41,22.40
2019,07,09,13,42,22.50
2019,07,09,13,43,22.50
2019,07,09,13,44,22.60
2019,07,09,13,45,22.70
2019,07,09,13,46,22.70
2019,07,09,13,47,22.80
2019,07,09,13,48,22.90
2019,07,09,13,49,22.90
2019,07,09,13,50,23.00
2019,07,09,13,51,23.00
2019,07,09,13,52,23.00
2019,07,09,13,53,23.10
2019,07,09,13,54,23.10
2019,07,09,13,55,23.10
2019,07,09,13,56,23.10
2019,07,09,13,57,23.10
2019,07,09,13,58,23.00
2019,07,09,13,59,23.00
2019,07,09,14,00,23.00
2019,07,09,14,01,23.00
2019,07,09,14,02,23.00
2019,07,09,14,03,23.10
2019,07,09,14,04,23.20
2019,07,09,14,05,23.30
2019,07,09,14,06,23.40
2019,07,09,14,07,23.50
2019,07,09,14,08,23.60
2019,07,09,14,09,23.60
2019,07,09,14,10,23.60
2019,07,09,14,11,23.50
2019,07,09,14,12,23.40
2019,07,09,14,13,23.40
2019,07,09,14,14,23.30
2019,07,09,14,15,23.30
2019,07,09,14,16,23.30
2019,07,09,14,17,23.30
2019,07,09,14,18,23.20
2019,07,09,14,19,23.20
2019,07,09,14,20,23.20
2019,07,09,14,21,23.20
2019,07,09,14,22,23.20
2019,07,09,14,23,23.20
2019,07,09,14,24,23.20
2019,07,09,14,25,23.20
2019,07,09,14,26,23.20
2019,07,09,14,27,23.20
2019,07,09,14,28,23.20
2019,07,09,14,29,23.30
2019,07,09,14,30,23.30
2019,07,09,14,31,23.30
2019,07,09,14,32,23.30
2019,07,09,14,33,23.30
2019,07,09,14,34,23.30
2019,07,09,14,35,23.30
2019,07,09,14,36,23.30
2019,07,09,14,37,23.40
2019,07,09,14,38,23.40
2019,07,09,14,39,23.40
2019,07,09,14,40,23.40
2019,07,09,14,41,23.50
2019,07,09,14,42,23.50
2019,07,09,14,43,23.60
2019,07,09,14,44,23.60
2019,07,09,14,45,23.60
2019,07,09,14,46,23.70
2019,07,09,14,47,23.70
2019,07,09,14,48,23.70
2019,07,09,14,49,23.70
2019,07,09,14,50,23.70
2019,07,09,14,51,23.70
2019,07,09,14,52,23.70
2019,07,09,14,53,23.70
2019,07,09,14,54,23.70
2019,07,09,14,55,23.70
2019,07,09,14,56,23.70
2019,07,09,14,57,23.70
2019,07,09,14,58,23.70
2019,07,09,14,59,23.70
2019,07,09,15,00,23.70
2019,07,09,15,01,23.80
2019,07,09,15,02,23.80
2019,07,09,15,03,23.80
2019,07,09,15,04,23.80
2019,07,09,15,05,23.80
2019,07,09,15,06,23.80
2019,07,09,15,07,23.80
2019,07,09,15,08,23.80
2019,07,09,15,09,23.80
2019,07,09,15,10,23.90
2019,07,09,15,11,23.90
2019,07,09,15,12,23.90
2019,07,09,15,13,24.00
2019,07,09,15,14,24.00
2019,07,09,15,15,24.10
2019,07,09,15,16,24.10
2019,07,09,15,17,24.20
2019,07,09,15,18,24.30
2019,07,09,15,19,24.30
2019,07,09,15,20,24.40
2019,07,09,15,21,24.40
2019,07,09,15,22,24.40
2019,07,09,15,23,24.40
2019,07,09,15,24,24.40
2019,07,09,15,25,24.40
2019,07,09,15,26,24.40
2019,07,09,15,27,24.40
2019,07,09,15,28,24.50
2019,07,09,15,29,24.50
2019,07,09,15,30,24.60
2019,07,09,15,31,24.70
2019,07,09,15,32,24.70
2019,07,09,15,33,24.80
2019,07,09,15,34,24.80
2019,07,09,15,35,24.90
2019,07,09,15,36,24.90
2019,07,09,15,37,24.80
2019,07,09,15,38,24.80
2019,07,09,15,39,24.70
2019,07,09,15,40,24.70
2019,07,09,15,41,24.70
2019,07,09,15,42,24.60
2019,07,09,15,43,24.60
2019,07,09,15,44,24.50
2019,07,09,15,45,24.50
2019,07,09,15,46,24.40
2019,07,09,15,47,24.30
2019,07,09,15,48,24.30
2019,07,09,15,49,24.40
2019,07,09,15,50,24.40
2019,07,09,15,51,24.40
2019,07,09,15,52,24.50
2019,07,09,15,53,24.50
2019,07,09,15,54,24.50
2019,07,09,15,55,24.40
2019,07,09,15,56,24.40
2019,07,09,15,57,24.40
2019,07,09,15,58,24.40
2019,07,09,15,59,24.40
2019,07,09,16,00,24.50
2019,07,09,16,01,24.50
2019,07,09,16,02,24.50
2019,07,09,16,03,24.60
2019,07,09,16,04,24.60
2019,07,09,16,05,24.70
2019,07,09,16,06,24.70
2019,07,09,16,07,24.70
2019,07,09,16,08,24.60
2019,07,09,16,09,24.60
2019,07,09,16,10,24.60
2019,07,09,16,11,24.60
2019,07,09,16,12,24.60
2019,07,09,16,13,24.60
2019,07,09,16,14,24.60
2019,07,09,16,15,24.70
2019,07,09,16,16,24.70
2019,07,09,16,17,24.80
2019,07,09,16,18,24.80
2019,07,09,16,19,24.80
2019,07,09,16,20,24.80
2019,07,09,16,21,24.80
2019,07,09,16,22,24.90
2019,07,09,16,23,24.90
2019,07,09,16,24,25.00
2019,07,09,16,25,25.00
2019,07,09,16,26,25.10
2019,07,09,16,27,25.10
2019,07,09,16,28,25.10
2019,07,09,16,29,25.20
2019,07,09,16,30,25.20
2019,07,09,16,31,25.20
2019,07,09,16,32,25.30
2019,07,09,16,33,25.30
2019,07,09,16,34,25.40
2019,07,09,16,35,25.40
2019,07,09,16,36,25.40
2019,07,09,16,37,25.50
2019,07,09,16,38,25.60
2019,07,09,16,39,25.60
2019,07,09,16,40,25.60
2019,07,09,16,41,25.60
2019,07,09,16,42,25.60
2019,07,09,16,43,25.60
2019,07,09,16,44,25.60
2019,07,09,16,45,25.50
2019,07,09,16,46,25.50
2019,07,09,16,47,25.40
2019,07,09,16,48,25.40
2019,07,09,16,49,25.30
2019,07,09,16,50,25.30
2019,07,09,16,51,25.30
2019,07,09,16,52,25.20
2019,07,09,16,53,25.20
2019,07,09,16,54,25.20
2019,07,09,16,55,25.10
2019,07,09,16,56,25.10
2019,07,09,16,57,25.10
2019,07,09,16,58,25.10
2019,07,09,16,59,25.20
2019,07,09,17,00,25.20
2019,07,09,17,01,25.20
2019,07,09,17,02,25.20
2019,07,09,17,03,25.20
2019,07,09,17,04,25.30
2019,07,09,17,05,25.30
2019,07,09,17,06,25.30
2019,07,09,17,07,25.30
2019,07,09,17,08,25.30
2019,07,09,17,09,25.40
2019,07,09,17,10,25.40
2019,07,09,17,11,25.40
2019,07,09,17,12,25.40
2019,07,09,17,13,25.40
2019,07,09,17,14,25.40
2019,07,09,17,15,25.40
2019,07,09,17,16,25.40
2019,07,09,17,17,25.40
2019,07,09,17,18,25.40
2019,07,09,17,19,25.30